Powrót do katalogu

STARLINK-37028

AktywnyŁącznośćVLEO
NORAD 68270·PAYLOAD·🇺🇸 United States

Wystrzelony Mar 19, 2026 z Vandenberg Space Force Base

Loading…

Następne Przeloty (najbliższe 24 godziny)

TLE

ŚwieżeSource: CelesTrak SupGP

Epoka: Sep 14, 2026, 21:22 UTC

1 68270C 26055J   26257.89076389 -.00121600  00000+0 -35885-2 0  2572
2 68270  53.1579 157.6192 0001380  90.5193  81.4176 15.34487819    13

Śledź STARLINK-37028 w czasie rzeczywistym z AllMySat

Download on the App Store